This is the latest recevied weather packets stored in our database for station/object SP1BMW-13. If no packets are shown the sender has not sent any weather packets the latest 10 day(s).
| Time | Temp. | Humidity | Pressure | Rain* | Wind** | Luminosity | Snow |
|---|---|---|---|---|---|---|---|
| 1788111577 | 22.22° C | 57% | 1009.5 hPa | 0 mm | 0 m/s | 10 W/m² | - |
| 1788111518 | 22.22° C | 57% | 1009.6 hPa | 0 mm | 0.89 m/s, 267° | 10 W/m² | - |
| 1788111458 | 22.22° C | 57% | 1009.3 hPa | 0 mm | 1.34 m/s, 236° | 11 W/m² | - |
| 1788111398 | 22.78° C | 57% | 1009.4 hPa | 0 mm | 0.45 m/s, 226° | 11 W/m² | - |
| 1788111338 | 22.78° C | 57% | 1009.5 hPa | 0 mm | 0.89 m/s, 261° | 12 W/m² | - |
| 1788111277 | 22.78° C | 57% | 1009.5 hPa | 0 mm | 0.89 m/s, 160° | 12 W/m² | - |
| 1788111220 | 22.78° C | 56% | 1009.5 hPa | 0 mm | 0.89 m/s, 272° | 13 W/m² | - |
| 1788111158 | 22.78° C | 56% | 1009.4 hPa | 0 mm | 0 m/s | 13 W/m² | - |
| 1788111098 | 22.78° C | 56% | 1009.5 hPa | 0 mm | 1.34 m/s, 209° | 14 W/m² | - |
| 1788111037 | 22.78° C | 56% | 1009.4 hPa | 0 mm | 0.89 m/s, 291° | 14 W/m² | - |
| 1788110980 | 22.78° C | 56% | 1009.2 hPa | 0 mm | 0.89 m/s, 74° | 15 W/m² | - |
| 1788110918 | 22.78° C | 56% | 1009.2 hPa | 0 mm | 0.89 m/s, 265° | 15 W/m² | - |
| 1788110858 | 22.78° C | 56% | 1009.4 hPa | 0 mm | 1.34 m/s, 279° | 16 W/m² | - |
| 1788110798 | 22.78° C | 56% | 1009.3 hPa | 0 mm | 0.45 m/s, 264° | 17 W/m² | - |
| 1788110738 | 22.78° C | 56% | 1009.5 hPa | 0 mm | 0.89 m/s, 337° | 17 W/m² | - |
| 1788110678 | 22.78° C | 56% | 1009.2 hPa | 0 mm | 0.89 m/s, 31° | 18 W/m² | - |
| 1788110618 | 22.78° C | 56% | 1009.3 hPa | 0 mm | 0.89 m/s, 170° | 18 W/m² | - |
| 1788110558 | 22.78° C | 55% | 1009.4 hPa | 0 mm | 1.34 m/s, 287° | 19 W/m² | - |
| 1788110498 | 22.78° C | 55% | 1009.4 hPa | 0 mm | 1.79 m/s, 242° | 19 W/m² | - |
| 1788110438 | 22.78° C | 55% | 1009.2 hPa | 0 mm | 1.79 m/s, 159° | 20 W/m² | - |
| 1788110378 | 22.78° C | 55% | 1009.2 hPa | 0 mm | 0.89 m/s, 245° | 20 W/m² | - |
| 1788110318 | 23.33° C | 55% | 1009.3 hPa | 0 mm | 1.79 m/s, 238° | 21 W/m² | - |
| 1788110258 | 23.33° C | 56% | 1009.3 hPa | 0 mm | 0.45 m/s, 46° | 21 W/m² | - |
| 1788110198 | 23.33° C | 55% | 1009.4 hPa | 0 mm | 1.34 m/s, 306° | 21 W/m² | - |
| 1788110138 | 23.33° C | 55% | 1009.2 hPa | 0 mm | 0.89 m/s, 247° | 22 W/m² | - |
* Rain latest hour (hover to see other rain measurements)
** Current wind speed in m/s (hover to see current wind gust speed)